﻿測定場所 (Monitoring sites),日付 (Measurement date),時間 (Measurement time),線量率 最大値 (max) μGy/h,線量率 最小値 (min) μGy/h,線量率 平均値 (average) μGy/h,
足立 (Adachi),2024-03-10,23:01～24:00,0.0312,0.0270,0.0287,
足立 (Adachi),2024-03-10,22:01～23:00,0.0322,0.0263,0.0290,
足立 (Adachi),2024-03-10,21:01～22:00,0.0305,0.0271,0.0289,
足立 (Adachi),2024-03-10,20:01～21:00,0.0318,0.0263,0.0289,
足立 (Adachi),2024-03-10,19:01～20:00,0.0308,0.0262,0.0287,
足立 (Adachi),2024-03-10,18:01～19:00,0.0304,0.0268,0.0285,
足立 (Adachi),2024-03-10,17:01～18:00,0.0308,0.0263,0.0286,
足立 (Adachi),2024-03-10,16:01～17:00,0.0308,0.0263,0.0286,
足立 (Adachi),2024-03-10,15:01～16:00,0.0311,0.0266,0.0290,
足立 (Adachi),2024-03-10,14:01～15:00,0.0311,0.0277,0.0292,
足立 (Adachi),2024-03-10,13:01～14:00,0.0322,0.0270,0.0292,
足立 (Adachi),2024-03-10,12:01～13:00,0.0315,0.0272,0.0293,
足立 (Adachi),2024-03-10,11:01～12:00,0.0308,0.0271,0.0293,
足立 (Adachi),2024-03-10,10:01～11:00,0.0315,0.0266,0.0294,
足立 (Adachi),2024-03-10,09:01～10:00,0.0316,0.0262,0.0294,
足立 (Adachi),2024-03-10,08:01～09:00,0.0318,0.0271,0.0295,
足立 (Adachi),2024-03-10,07:01～08:00,0.0311,0.0265,0.0291,
足立 (Adachi),2024-03-10,06:01～07:00,0.0318,0.0271,0.0294,
足立 (Adachi),2024-03-10,05:01～06:00,0.0321,0.0273,0.0293,
足立 (Adachi),2024-03-10,04:01～05:00,0.0316,0.0267,0.0291,
足立 (Adachi),2024-03-10,03:01～04:00,0.0327,0.0264,0.0291,
足立 (Adachi),2024-03-10,02:01～03:00,0.0317,0.0268,0.0291,
足立 (Adachi),2024-03-10,01:01～02:00,0.0318,0.0272,0.0295,
足立 (Adachi),2024-03-10,00:01～01:00,0.0315,0.0276,0.0296,
足立 (Adachi),2024-03-09,23:01～24:00,0.0317,0.0271,0.0297,
足立 (Adachi),2024-03-09,22:01～23:00,0.0324,0.0280,0.0299,
足立 (Adachi),2024-03-09,21:01～22:00,0.0319,0.0283,0.0298,
足立 (Adachi),2024-03-09,20:01～21:00,0.0316,0.0283,0.0299,
足立 (Adachi),2024-03-09,19:01～20:00,0.0331,0.0277,0.0297,
足立 (Adachi),2024-03-09,18:01～19:00,0.0325,0.0270,0.0295,
足立 (Adachi),2024-03-09,17:01～18:00,0.0325,0.0274,0.0293,
足立 (Adachi),2024-03-09,16:01～17:00,0.0312,0.0273,0.0294,
足立 (Adachi),2024-03-09,15:01～16:00,0.0315,0.0271,0.0294,
足立 (Adachi),2024-03-09,14:01～15:00,0.0327,0.0283,0.0296,
足立 (Adachi),2024-03-09,13:01～14:00,0.0319,0.0274,0.0294,
足立 (Adachi),2024-03-09,12:01～13:00,0.0319,0.0270,0.0294,
足立 (Adachi),2024-03-09,11:01～12:00,0.0321,0.0268,0.0294,
足立 (Adachi),2024-03-09,10:01～11:00,0.0314,0.0275,0.0292,
足立 (Adachi),2024-03-09,09:01～10:00,0.0322,0.0276,0.0295,
足立 (Adachi),2024-03-09,08:01～09:00,0.0324,0.0269,0.0292,
足立 (Adachi),2024-03-09,07:01～08:00,0.0319,0.0276,0.0294,
足立 (Adachi),2024-03-09,06:01～07:00,0.0315,0.0270,0.0293,
足立 (Adachi),2024-03-09,05:01～06:00,0.0307,0.0266,0.0286,
足立 (Adachi),2024-03-09,04:01～05:00,0.0308,0.0260,0.0285,
足立 (Adachi),2024-03-09,03:01～04:00,0.0302,0.0268,0.0286,
足立 (Adachi),2024-03-09,02:01～03:00,0.0311,0.0273,0.0292,
足立 (Adachi),2024-03-09,01:01～02:00,0.0314,0.0270,0.0291,
足立 (Adachi),2024-03-09,00:01～01:00,0.0311,0.0274,0.0293,
足立 (Adachi),2024-03-08,23:01～24:00,0.0332,0.0280,0.0307,
足立 (Adachi),2024-03-08,22:01～23:00,0.0414,0.0316,0.0357,
足立 (Adachi),2024-03-08,21:01～22:00,0.0510,0.0404,0.0459,
足立 (Adachi),2024-03-08,20:01～21:00,0.0457,0.0274,0.0343,
足立 (Adachi),2024-03-08,19:01～20:00,0.0308,0.0270,0.0290,
足立 (Adachi),2024-03-08,18:01～19:00,0.0311,0.0269,0.0288,
足立 (Adachi),2024-03-08,17:01～18:00,0.0314,0.0269,0.0290,
足立 (Adachi),2024-03-08,16:01～17:00,0.0310,0.0267,0.0288,
足立 (Adachi),2024-03-08,15:01～16:00,0.0321,0.0266,0.0290,
足立 (Adachi),2024-03-08,14:01～15:00,0.0312,0.0270,0.0289,
足立 (Adachi),2024-03-08,13:01～14:00,0.0308,0.0270,0.0288,
足立 (Adachi),2024-03-08,12:01～13:00,0.0307,0.0274,0.0290,
足立 (Adachi),2024-03-08,11:01～12:00,0.0324,0.0271,0.0293,
足立 (Adachi),2024-03-08,10:01～11:00,0.0347,0.0289,0.0314,
足立 (Adachi),2024-03-08,09:01～10:00,0.0355,0.0301,0.0332,
足立 (Adachi),2024-03-08,08:01～09:00,0.0350,0.0276,0.0314,
足立 (Adachi),2024-03-08,07:01～08:00,0.0422,0.0305,0.0369,
足立 (Adachi),2024-03-08,06:01～07:00,0.0460,0.0400,0.0433,
足立 (Adachi),2024-03-08,05:01～06:00,0.0467,0.0411,0.0439,
足立 (Adachi),2024-03-08,04:01～05:00,0.0475,0.0419,0.0444,
足立 (Adachi),2024-03-08,03:01～04:00,0.0463,0.0403,0.0432,
足立 (Adachi),2024-03-08,02:01～03:00,0.0450,0.0387,0.0421,
足立 (Adachi),2024-03-08,01:01～02:00,0.0423,0.0351,0.0391,
足立 (Adachi),2024-03-08,00:01～01:00,0.0384,0.0319,0.0350,
足立 (Adachi),2024-03-07,23:01～24:00,0.0362,0.0280,0.0323,
足立 (Adachi),2024-03-07,22:01～23:00,0.0313,0.0256,0.0290,
足立 (Adachi),2024-03-07,21:01～22:00,0.0305,0.0268,0.0285,
足立 (Adachi),2024-03-07,20:01～21:00,0.0318,0.0271,0.0289,
足立 (Adachi),2024-03-07,19:01～20:00,0.0308,0.0261,0.0286,
足立 (Adachi),2024-03-07,18:01～19:00,0.0310,0.0268,0.0288,
足立 (Adachi),2024-03-07,17:01～18:00,0.0311,0.0266,0.0285,
足立 (Adachi),2024-03-07,16:01～17:00,0.0303,0.0259,0.0285,
足立 (Adachi),2024-03-07,15:01～16:00,0.0316,0.0263,0.0289,
足立 (Adachi),2024-03-07,14:01～15:00,0.0308,0.0276,0.0291,
足立 (Adachi),2024-03-07,13:01～14:00,0.0310,0.0266,0.0287,
足立 (Adachi),2024-03-07,12:01～13:00,0.0310,0.0269,0.0288,
足立 (Adachi),2024-03-07,11:01～12:00,0.0308,0.0267,0.0288,
足立 (Adachi),2024-03-07,10:01～11:00,0.0314,0.0269,0.0290,
足立 (Adachi),2024-03-07,09:01～10:00,0.0304,0.0270,0.0288,
足立 (Adachi),2024-03-07,08:01～09:00,0.0308,0.0266,0.0288,
足立 (Adachi),2024-03-07,07:01～08:00,0.0311,0.0270,0.0288,
足立 (Adachi),2024-03-07,06:01～07:00,0.0313,0.0263,0.0287,
足立 (Adachi),2024-03-07,05:01～06:00,0.0313,0.0272,0.0291,
足立 (Adachi),2024-03-07,04:01～05:00,0.0318,0.0272,0.0292,
足立 (Adachi),2024-03-07,03:01～04:00,0.0318,0.0272,0.0290,
足立 (Adachi),2024-03-07,02:01～03:00,0.0308,0.0270,0.0294,
足立 (Adachi),2024-03-07,01:01～02:00,0.0316,0.0272,0.0293,
足立 (Adachi),2024-03-07,00:01～01:00,0.0317,0.0261,0.0289,
足立 (Adachi),2024-03-06,23:01～24:00,0.0318,0.0264,0.0290,
足立 (Adachi),2024-03-06,22:01～23:00,0.0322,0.0270,0.0292,
足立 (Adachi),2024-03-06,21:01～22:00,0.0308,0.0273,0.0290,
足立 (Adachi),2024-03-06,20:01～21:00,0.0309,0.0273,0.0290,
足立 (Adachi),2024-03-06,19:01～20:00,0.0313,0.0272,0.0290,
足立 (Adachi),2024-03-06,18:01～19:00,0.0307,0.0265,0.0287,
足立 (Adachi),2024-03-06,17:01～18:00,0.0309,0.0263,0.0286,
足立 (Adachi),2024-03-06,16:01～17:00,0.0331,0.0267,0.0286,
足立 (Adachi),2024-03-06,15:01～16:00,0.0308,0.0262,0.0287,
足立 (Adachi),2024-03-06,14:01～15:00,0.0322,0.0279,0.0298,
足立 (Adachi),2024-03-06,13:01～14:00,0.0381,0.0294,0.0334,
足立 (Adachi),2024-03-06,12:01～13:00,0.0513,0.0363,0.0436,
足立 (Adachi),2024-03-06,11:01～12:00,0.0520,0.0370,0.0452,
足立 (Adachi),2024-03-06,10:01～11:00,0.0387,0.0289,0.0327,
足立 (Adachi),2024-03-06,09:01～10:00,0.0353,0.0300,0.0325,
足立 (Adachi),2024-03-06,08:01～09:00,0.0339,0.0291,0.0316,
足立 (Adachi),2024-03-06,07:01～08:00,0.0391,0.0308,0.0347,
足立 (Adachi),2024-03-06,06:01～07:00,0.0408,0.0353,0.0382,
足立 (Adachi),2024-03-06,05:01～06:00,0.0415,0.0356,0.0387,
足立 (Adachi),2024-03-06,04:01～05:00,0.0478,0.0364,0.0405,
足立 (Adachi),2024-03-06,03:01～04:00,0.0500,0.0425,0.0463,
足立 (Adachi),2024-03-06,02:01～03:00,0.0489,0.0426,0.0452,
足立 (Adachi),2024-03-06,01:01～02:00,0.0504,0.0429,0.0463,
足立 (Adachi),2024-03-06,00:01～01:00,0.0472,0.0403,0.0438,
足立 (Adachi),2024-03-05,23:01～24:00,0.0461,0.0405,0.0434,
足立 (Adachi),2024-03-05,22:01～23:00,0.0491,0.0415,0.0448,
足立 (Adachi),2024-03-05,21:01～22:00,0.0452,0.0390,0.0425,
足立 (Adachi),2024-03-05,20:01～21:00,0.0434,0.0378,0.0406,
足立 (Adachi),2024-03-05,19:01～20:00,0.0451,0.0389,0.0421,
足立 (Adachi),2024-03-05,18:01～19:00,0.0461,0.0399,0.0427,
足立 (Adachi),2024-03-05,17:01～18:00,0.0413,0.0366,0.0394,
足立 (Adachi),2024-03-05,16:01～17:00,0.0399,0.0339,0.0375,
足立 (Adachi),2024-03-05,15:01～16:00,0.0391,0.0349,0.0370,
足立 (Adachi),2024-03-05,14:01～15:00,0.0366,0.0295,0.0330,
足立 (Adachi),2024-03-05,13:01～14:00,0.0384,0.0314,0.0339,
足立 (Adachi),2024-03-05,12:01～13:00,0.0380,0.0318,0.0347,
足立 (Adachi),2024-03-05,11:01～12:00,0.0349,0.0287,0.0318,
足立 (Adachi),2024-03-05,10:01～11:00,0.0320,0.0273,0.0295,
足立 (Adachi),2024-03-05,09:01～10:00,0.0325,0.0271,0.0293,
足立 (Adachi),2024-03-05,08:01～09:00,0.0318,0.0270,0.0292,
足立 (Adachi),2024-03-05,07:01～08:00,0.0319,0.0273,0.0293,
足立 (Adachi),2024-03-05,06:01～07:00,0.0313,0.0276,0.0293,
足立 (Adachi),2024-03-05,05:01～06:00,0.0313,0.0280,0.0295,
足立 (Adachi),2024-03-05,04:01～05:00,0.0312,0.0280,0.0296,
足立 (Adachi),2024-03-05,03:01～04:00,0.0312,0.0276,0.0295,
足立 (Adachi),2024-03-05,02:01～03:00,0.0311,0.0273,0.0294,
足立 (Adachi),2024-03-05,01:01～02:00,0.0315,0.0276,0.0293,
足立 (Adachi),2024-03-05,00:01～01:00,0.0316,0.0272,0.0291,
足立 (Adachi),2024-03-04,23:01～24:00,0.0315,0.0272,0.0292,
足立 (Adachi),2024-03-04,22:01～23:00,0.0324,0.0268,0.0292,
足立 (Adachi),2024-03-04,21:01～22:00,0.0307,0.0268,0.0291,
足立 (Adachi),2024-03-04,20:01～21:00,0.0310,0.0276,0.0290,
足立 (Adachi),2024-03-04,19:01～20:00,0.0310,0.0272,0.0291,
足立 (Adachi),2024-03-04,18:01～19:00,0.0308,0.0270,0.0290,
足立 (Adachi),2024-03-04,17:01～18:00,0.0313,0.0269,0.0293,
足立 (Adachi),2024-03-04,16:01～17:00,0.0319,0.0276,0.0295,
足立 (Adachi),2024-03-04,15:01～16:00,0.0322,0.0273,0.0300,
足立 (Adachi),2024-03-04,14:01～15:00,0.0317,0.0280,0.0300,
足立 (Adachi),2024-03-04,13:01～14:00,0.0325,0.0276,0.0299,
足立 (Adachi),2024-03-04,12:01～13:00,0.0318,0.0275,0.0296,
足立 (Adachi),2024-03-04,11:01～12:00,0.0325,0.0276,0.0301,
足立 (Adachi),2024-03-04,10:01～11:00,0.0319,0.0280,0.0298,
足立 (Adachi),2024-03-04,09:01～10:00,0.0320,0.0280,0.0300,
足立 (Adachi),2024-03-04,08:01～09:00,0.0319,0.0275,0.0296,
足立 (Adachi),2024-03-04,07:01～08:00,0.0325,0.0276,0.0296,
足立 (Adachi),2024-03-04,06:01～07:00,0.0318,0.0281,0.0296,
足立 (Adachi),2024-03-04,05:01～06:00,0.0321,0.0280,0.0298,
足立 (Adachi),2024-03-04,04:01～05:00,0.0323,0.0272,0.0298,
足立 (Adachi),2024-03-04,03:01～04:00,0.0315,0.0270,0.0299,
足立 (Adachi),2024-03-04,02:01～03:00,0.0316,0.0277,0.0297,
足立 (Adachi),2024-03-04,01:01～02:00,0.0325,0.0278,0.0300,
足立 (Adachi),2024-03-04,00:01～01:00,0.0317,0.0280,0.0297,
